Location: Brede
(50.9167°N, 0.6000°E)
Time: 03:04:13
(UTC+00:00)

Okean 1-7 Rocket - Pass Details

Date: 08 August 2020
Orbit: 617 x 648 km, 82.5° (Epoch: 25 September)

Event Time Altitude Azimuth Distance (km) Brightness Sun altitude
Rises 02:46:06 0° 346° (NNW) 2,908 7.5 -14.2°
Reaches altitude 10° 02:48:22 10° 341° (NNW) 2,000 6.6 -13.9°
Maximum altitude 02:52:40 53° 265° (W) 771 3.8 -13.5°
Enters shadow 02:56:00 16° 193° (SSW) 1,623 5.2 -13.2°
